Location: Clay Ashland
(6.4229°N, 10.7271°W)
Time: 12:09:12
(UTC+00:00)

Daily predictions for brighter satellites

Satellite Brightness Start Highest point End
(mag) Time Altitude Azimuth Time Altitude Azimuth Time Altitude Azimuth
Ariane H10+ 3.3 19:12:42 10° WSW 19:15:55 68° SSE 19:27:57 10° E
Cosmos 1633 4.0 19:17:29 10° SE 19:20:00 18° E 19:22:29 10° NE
Cosmos 1766 Rocket 3.6 19:17:02 10° S 19:21:28 73° E 19:25:55 10° N
YAOGAN 1 3.2 19:20:56 10° SE 19:24:54 36° ENE 19:28:51 10° N
FALCON 9 DEB 3.9 19:22:29 10° SW 19:25:53 58° NW 19:29:19 10° NNE
Yuri Rocket 3.3 19:23:32 10° WSW 19:28:28 74° NNW 19:32:37 10° NE
Cosmos 304 Rocket 3.7 19:25:45 10° N 19:30:31 81° ENE 19:35:18 10° SSE
Cosmos 1346 Rocket 2.8 19:28:46 10° S 19:32:42 87° W 19:36:39 10° N
Cosmos 1408 Rocket 3.6 19:35:32 10° S 19:39:55 63° E 19:44:19 10° NNE
COSMOS 2406 3.4 19:35:58 10° S 19:41:32 49° ESE 19:47:02 10° NNE
Cosmos 2366 rocket 4.3 19:37:53 10° SSE 19:43:51 45° E 19:49:46 10° NNE
Cosmos 1743 Rocket 4.4 19:40:05 10° SSE 19:43:52 29° E 19:47:41 10° NNE
Okean-O 3.1 19:41:36 10° S 19:45:59 62° W 19:50:20 10° NNW
GOES 2 Rocket 4.4 19:41:08 10° WNW 19:47:38 84° SSW 19:54:41 17° ESE
GPS 2-15 Rocket1 4.1 19:45:51 10° SW 19:49:51 28° SSE 19:51:58 20° ESE
Abrixas rocket 2.4 19:52:43 10° NNW 19:55:27 40° NE 19:56:07 33° E
CZ-2C R/B 3.3 19:50:45 10° SSE 19:55:39 45° ENE 20:00:19 10° N
SL-8 Rocket 3.9 19:50:01 10° S 19:56:10 83° E 20:02:19 10° N
CSL-04 Rocket 3.7 19:50:56 10° SSE 19:56:12 60° ENE 20:01:24 10° N
HJ-1C 3.7 19:54:24 21° SE 19:56:15 42° ENE 19:59:26 10° N
Cosmos 2341 Rocket 4.4 19:50:11 10° SSW 19:56:20 67° W 20:02:29 10° N
Cosmos 2082 Rocket 3.3 19:52:29 10° SSE 19:56:43 21° ESE 20:00:55 10° NE
H-2A R/B 3.3 19:58:41 10° W 20:00:58 18° NW 20:02:25 10° NNE
CZ-4 R/B 2.6 19:59:06 10° S 20:02:44 41° W 20:06:23 10° NNW
Cosmos 1500 Rocket 3.6 19:59:04 10° S 20:03:16 51° E 20:07:26 10° NNE
Ariane Rocket 4.1 20:07:49 23° ENE 20:07:51 23° ENE 20:11:48 10° NNE
CZ-2C R/B 4.3 20:04:01 10° NE 20:07:52 31° E 20:07:52 31° E
SJ-11-01 4.2 20:04:16 15° SSE 20:08:09 63° ENE 20:12:47 10° N
MOS 1 Rocket 4.2 20:04:52 10° N 20:10:05 58° WNW 20:15:03 10° SSW
TRAILBLAZER 4.5 20:06:36 10° NNW 20:11:07 71° ENE 20:13:12 32° SE
Cosmos 407 Rocket 3.8 20:07:44 10° S 20:12:44 41° ESE 20:17:43 10° NNE
ARGOS 3.5 20:10:54 28° SE 20:13:07 42° ENE 20:18:10 10° N
ARIANE DEB (SPELDA) 4.2 20:16:07 10° SSW 20:16:18 11° SSW 20:16:18 11° SSW
Cosmos 2369 Rocket 4.2 20:19:32 10° NW 20:24:10 26° WSW 20:28:49 10° SSW
USA 238 DEB 3.7 20:18:32 10° S 20:24:47 47° ESE 20:31:01 10° NE
USA 238 3.7 20:18:41 10° S 20:24:54 46° ESE 20:31:06 10° NE
H-2A R/B 2.0 20:22:57 19° SSE 20:26:49 88° ENE 20:32:02 10° NNW
Cosmos 2218 Rocket 4.5 20:20:43 10° SSW 20:26:52 61° W 20:32:56 10° N
Cosmos 1331 Rocket 4.3 20:21:54 10° NNW 20:27:01 63° WSW 20:30:56 17° S
Cosmos 1328 Rocket 3.5 20:29:30 10° N 20:33:55 83° W 20:34:58 52° S
CZ-2C R/B 3.1 20:30:49 10° N 20:35:55 58° WNW 20:41:09 10° SSW
Cosmos 1140 Rocket 4.5 20:40:41 32° NE 20:40:41 32° NE 20:43:33 10° NNE
SL-08 RB Rocket 4.2 20:41:54 47° NNE 20:41:54 47° NNE 20:45:20 10° N
Cosmos 1933 4.0 20:37:37 10° NNW 20:41:37 54° W 20:42:22 46° SW
Cosmos 1339 Rocket 4.3 20:37:44 10° N 20:44:00 76° E 20:45:37 51° SSE
Cosmos 1833 Rocket 3.5 20:41:54 10° SSW 20:47:18 50° WNW 20:52:43 10° N
Cosmos 1867 3.9 20:48:33 10° SSW 20:53:52 63° WNW 20:59:13 10° NNE
ISS -0.8 20:58:12 10° NW 20:58:47 14° NW 20:58:47 14° NW
NOSS 3-2 (A) 4.2 21:14:55 10° SW 21:23:48 18° N 21:25:15 10° N
ATLAS 5 CENTAUR R/B 3.4 21:20:27 10° WSW 21:45:10 - ENE 21:21:31 22° WSW
ARIANE 5 DEB (SYLDA) 4.2 21:16:17 10° W 21:29:03 56° WSW 21:29:03 56° WSW
Cosmos 2082 Rocket 4.0 21:35:45 10° SW 21:40:29 27° WNW 21:45:14 10° NNW
ATLAS 2A CENTAUR R/B 4.2 20:49:29 10° WSW 21:42:01 77° NNW 21:45:13 56° NE
